{"data":{"norad_id":58367,"intl_designator":"2023-177S","name":"STARLINK-30891","alt_names":[],"object_type":"PAYLOAD","status":"ACTIVE","operator":null,"country":"US","launch_date":"2023-11-18","launch_site_code":"AFETR","launch_vehicle":null,"mission":null,"orbit_class":"UNKNOWN","rcs_meters":null,"size_class":null,"mass_kg":null,"dimensions":null,"purposes":["comms"],"wikipedia_slug":null,"has_3d_model":false,"image_url":null,"decayed_at":null,"tle_current":{"epoch":"2026-09-20T15:57:30.246624Z","epoch_age_seconds":129269,"freshness":"FRESH","line1":"1 58367U 23177S   26263.66493341  .00000460  00000+0  26248-4 0  9999","line2":"2 58367  43.0019 329.7201 0001002 275.2009  84.8729 15.27577497157982","mean_motion":15.27577497,"eccentricity":0.0001002,"inclination_deg":43.0019,"raan_deg":329.7201,"arg_perigee_deg":275.2009,"mean_anomaly_deg":84.8729,"bstar":2.6248e-5,"rev_number":15798,"period_min":94.266903173686,"perigee_km":482.36909933453,"apogee_km":483.74408253015,"semimajor_km":6861.1935909323,"source":"CELESTRAK","updated_at":"2026-09-21T09:00:33.844302Z"}}}